User: anonymous   Login
Location: Unspecified
(0.0000°N, 0.0000°E)
Time: 17:43:59
(UTC+00:00)
Language:

Tiangong 1 - Orbit

View from above orbital plane
View from above orbital plane
View from above satellite
View from above satellite

Ground track
Ground track

The orbit data is extracted from the following two-line orbital elements,

1 37820U 11053A   14325.39171693  .00082123  00000-0  53506-3 0  5932
2 37820 042.7679 083.3120 0009539 348.0542 064.8677 15.74864269180746
Epoch (UTC): 21 November 2014 09:24:04
Eccentricity: 0.0009539
inclination: 42.7679°
perigee height: 338 km
apogee height: 351 km
right ascension of ascending node: 83.3120°
argument of perigee: 348.0542°
revolutions per day: 15.74864269
mean anomaly at epoch: 64.8677°
orbit number at epoch: 18074

The dashed part of the orbit path shows where the satellite is in the earth's shadow,  

DLR